Location: Cerezo de Arriba
(41.2389°N, 3.5585°W)
Time: 04:05:26
(UTC+00:00)

Terra - Pass Details

Date: 19 May 2025
Orbit: 690 x 691 km, 98.0° (Epoch: 23 June)

Event Time Altitude Azimuth Distance (km) Brightness Sun altitude
Exits shadow 20:50:12 18° 150° (SSE) 1,655 3.2 -13.2°
Maximum altitude 20:53:35 61° 74° (ENE) 784 1.9 -13.6°
Drops below altitude 10° 20:58:13 10° 354° (N) 2,151 5.1 -14.3°
Sets 21:00:29 0° 351° (N) 3,072 6.0 -14.6°
